[[{"header":{"parameterUnit":"m.s-1","parameterCategory":2,"la1":30.2991,"la2":30.254,"lo1":-89.0895,"lo2":-89.0444,"dy":0.0017,"dx":0.0017,"nx":28,"ny":28,"refTime":"2025-05-24T21:00:00:Z","depth":"0","parameterNumber":2,"parameterNumberName":"U-component_of_CURRENTS"},"data":[0,0,0,0,0,0,0,0,0,0,0,0,0,0,0,0,0,0,0,0,0,0,0,0,0,0,0,0,0,0,0,0,0,0,0,0,0,0,0,0,0,0,0,0,0,0,0,0,0,0,0,0,0,0,0,0,0,0,0.2177,0.2177,0,0.221,0.2211,0.2211,0.222,0.222,0.222,0.2219,0.2335,0.2338,0.2341,0,0,0,0,0,0,0,0,0,0,0,0,0,0.217,0.2169,0.2177,0.2177,0.2178,0.221,0.2211,0.2211,0.222,0.222,0.222,0.2219,0.2334,0.2338,0.2342,0,0,0,0,0,0,0,0,0,0,0,0,0,0.2184,0.2169,0.2177,0.2186,0.2188,0.221,0.2211,0.2211,0.222,0.222,0.2219,0.2219,0.2333,0.2337,0.2342,0.2376,0,0,0.2357,0.2359,0,0,0,0,0,0,0,0,0.2183,0.2184,0.2184,0.2186,0.2187,0.2211,0.2251,0.2271,0.222,0.2207,0.2219,0.2219,0.2302,0.2309,0.2314,0.2382,0.2387,0.2357,0.236,0.2362,0.2364,0,0,0,0,0,0,0,0.2182,0.2183,0.2189,0.2185,0.2187,0.2206,0.2208,0.2254,0.2256,0.2208,0.2209,0.2214,0.2303,0.2309,0.2317,0.2388,0.2357,0.2361,0.2364,0.2366,0.2503,0.2503,0,0,0,0,0,0,0.2177,0.2182,0.2188,0.219,0.2185,0.2206,0.2208,0.2203,0.2254,0.2261,0.2214,0.2214,0.2301,0.2311,0.2321,0.2396,0.2362,0.2367,0.2369,0.2502,0.2503,0.2504,0,0,0,0,0,0,0.2176,0.2177,0.2187,0.2188,0.2191,0.2206,0.2201,0.2204,0.2213,0.2258,0.2266,0.222,0.2301,0.2314,0.2362,0.2399,0.2369,0.2373,0.2501,0.2502,0.2503,0.2526,0,0,0,0,0,0,0.2176,0.2176,0.2174,0.2187,0.2191,0.2214,0.2202,0.2205,0.2216,0.2217,0.2266,0.2276,0.2302,0.2355,0.2367,0.2406,0.2377,0.25,0.2502,0.2503,0.2525,0.2528,0.2531,0,0,0,0,0,0.2175,0.219,0.2174,0.2175,0.2186,0.2215,0.2219,0.2229,0.2217,0.2233,0.2253,0.2275,0.2372,0.2359,0.2374,0.2414,0.25,0.2501,0.2503,0.2523,0.2527,0.2531,0,0,0,0,0,0,0.2185,0.2192,0.2175,0.2188,0.22,0.2217,0.2234,0.223,0.2257,0.2257,0.2286,0.2299,0.2357,0.2376,0.236,0.2455,0.244,0.2444,0.245,0.2455,0.2458,0.2471,0.2381,0,0,0,0,0,0.2183,0.2198,0.2198,0.221,0.2213,0.2217,0.2229,0.2233,0.2256,0.2265,0.2293,0.2327,0.2374,0.2404,0.2444,0.2498,0.2488,0.2531,0.2534,0.2537,0.2556,0.2582,0.259,0.2509,0.2509,0.2509,0,0,0.2185,0.2196,0.2199,0.2213,0.2219,0.223,0.2224,0.2248,0.2264,0.2278,0.2312,0.2343,0.2389,0.2448,0.2476,0.247,0.254,0.2539,0.2541,0.2559,0.2585,0.2593,0.26,0.251,0.251,0.251,0,0,0.2205,0.2207,0.2218,0.2231,0.2246,0.2253,0.2258,0.2271,0.2286,0.2322,0.2336,0.2391,0.2444,0.2496,0.2526,0.2574,0.2555,0.2574,0.2611,0.2636,0.2643,0.2649,0.2581,0.2582,0.2578,0.2578,0.2578,0,0.2201,0.2214,0.2228,0.2243,0.2256,0.226,0.227,0.2292,0.232,0.2341,0.2338,0.2429,0.2479,0.2559,0.258,0.2589,0.2554,0.2593,0.2641,0.2647,0.2653,0.2583,0.2583,0.258,0.258,0.2579,0.2579,0,0.222,0.2232,0.2248,0.2259,0.2278,0.2298,0.2317,0.2339,0.2352,0.2372,0.2444,0.2502,0.2559,0.2585,0.2607,0.2678,0.2617,0.2638,0.2631,0.2663,0.2585,0.2585,0.2582,0.2581,0.2581,0.258,0,0,0.2197,0.2245,0.2248,0.2259,0.2288,0.2306,0.2341,0.2378,0.2403,0.2447,0.2492,0.2593,0.2615,0.2652,0.2684,0.2722,0.2731,0.2699,0.2699,0.2629,0.2701,0.2433,0.2406,0.2748,0.275,0.2752,0.2605,0,0.2197,0.2232,0.2257,0.2286,0.2301,0.2327,0.2362,0.2402,0.2437,0.2485,0.256,0.2614,0.2641,0.2671,0.272,0.2748,0.2741,0.2763,0.2684,0.268,0.2439,0.2403,0.224,0.2077,0.2605,0.2605,0.2605,0,0.2197,0.2225,0.2253,0.2305,0.2312,0.2331,0.2384,0.2415,0.2488,0.2518,0.2584,0.2624,0.271,0.2718,0.2762,0.2764,0.2734,0.2734,0.2728,0.248,0.2413,0.2144,0.2056,0.1972,0.2604,0.2604,0.2604,0,0.218,0.2224,0.225,0.2265,0.2318,0.2339,0.2364,0.2425,0.2454,0.2532,0.2553,0.2647,0.2671,0.2709,0.2683,0.2734,0.2667,0.2742,0.2451,0.2428,0.2277,0.2237,0.2105,0.274,0.2741,0.2741,0.2742,0,0.2181,0.2203,0.2244,0.226,0.2295,0.233,0.2371,0.2409,0.2461,0.2475,0.2565,0.2567,0.2672,0.2637,0.2653,0.2491,0.2628,0.2431,0.238,0.2266,0.2229,0.2139,0.2146,0.2736,0.2737,0.2738,0.2739,0,0.2172,0.2198,0.223,0.2277,0.2292,0.2315,0.2357,0.2376,0.2424,0.2441,0.2458,0.25,0.2423,0.2428,0.2428,0.2382,0.2195,0.2204,0.1996,0.1922,0.1595,0.1609,0.1402,0.1376,0.1907,0.19,0.1894,0,0.2168,0.2187,0.2233,0.2241,0.2263,0.2296,0.231,0.2358,0.2359,0.2367,0.2356,0.2283,0.2187,0.2025,0.1923,0.1795,0.1839,0.1558,0.1656,0.1508,0.1493,0.1529,0.1533,0.1453,0.1444,0.1436,0.143,0,0.2161,0.2181,0.2203,0.222,0.2232,0.2241,0.2251,0.2245,0.2261,0.2248,0.214,0.2056,0.1828,0.159,0.1372,0.1313,0.1435,0.1389,0.1349,0.1187,0.1117,0.1088,0.1567,0.1362,0.1369,0.1374,0.1378,0.138,0.214,0.2153,0.217,0.2182,0.2187,0.2148,0.2102,0.2077,0.2027,0.1899,0.1904,0.1667,0.1381,0.1046,0.0959,0.0667,0.0874,0.0658,0.07,0.076,0.0691,0.0931,0.0599,0.0601,0.0603,0.0605,0.0606,0,0.2089,0.211,0.2122,0.2103,0.2054,0.208,0.2023,0.1924,0.1782,0.164,0.149,0.1078,0.0751,0.0522,0.016,0.0039,0.0158,0.0018,0.0128,0.0188,0.0478,0.0412,-0.0114,-0.0114,-0.0114,-0.0114,-0.0113,-0.0113,0.206,0.2053,0.206,0.1964,0.1932,0.1799,0.1727,0.1582,0.1446,0.1103,0.0812,0.0662,0.0335,-0.0105,-0.0396,-0.04,-0.0315,-0.0418,-0.028,-0.0008,0.0061,0.0127,0.0067,-0.0523,-0.0523,-0.0568,-0.0569,-0.057]},{"header":{"parameterUnit":"m.s-1","parameterCategory":2,"la1":30.2991,"la2":30.254,"lo1":-89.0895,"lo2":-89.0444,"dy":0.0017,"dx":0.0017,"nx":28,"ny":28,"refTime":"2025-05-24T21:00:00:Z","depth":"0","parameterNumber":3,"parameterNumberName":"V-component_of_CURRENTS"},"data":[0,0,0,0,0,0,0,0,0,0,0,0,0,0,0,0,0,0,0,0,0,0,0,0,0,0,0,0,0,0,0,0,0,0,0,0,0,0,0,0,0,0,0,0,0,0,0,0,0,0,0,0,0,0,0,0,0,0,0.0495,0.0496,0,0.0565,0.0566,0.0567,0.0588,0.0588,0.0587,0.0587,0.0645,0.0647,0.0649,0,0,0,0,0,0,0,0,0,0,0,0,0,0.0408,0.0409,0.0495,0.0496,0.0496,0.0565,0.0566,0.0567,0.0588,0.0588,0.0587,0.0587,0.0644,0.0646,0.0649,0,0,0,0,0,0,0,0,0,0,0,0,0,0.046,0.041,0.0495,0.0514,0.0517,0.0565,0.0566,0.0568,0.0588,0.0588,0.0587,0.0586,0.0643,0.0646,0.0649,0.0681,0,0,0.0658,0.0659,0,0,0,0,0,0,0,0,0.0457,0.0463,0.0511,0.0513,0.0516,0.0566,0.0557,0.0605,0.0589,0.0562,0.0587,0.0586,0.0617,0.0622,0.0639,0.0684,0.0686,0.0658,0.066,0.0661,0.0662,0,0,0,0,0,0,0,0.0453,0.046,0.0524,0.0512,0.0515,0.053,0.0536,0.0566,0.0593,0.0565,0.0566,0.0572,0.0618,0.0636,0.064,0.0687,0.0658,0.0661,0.0663,0.0664,0.0791,0.0793,0,0,0,0,0,0,0.0442,0.0457,0.0522,0.0526,0.0483,0.0532,0.0539,0.0552,0.0593,0.0599,0.0573,0.0573,0.0631,0.0637,0.0642,0.0703,0.0661,0.0664,0.0666,0.079,0.0792,0.0793,0,0,0,0,0,0,0.044,0.0447,0.0519,0.0491,0.0501,0.0533,0.0548,0.0553,0.0572,0.06,0.0605,0.0586,0.0631,0.0638,0.0685,0.0704,0.0665,0.0668,0.0788,0.079,0.0793,0.0811,0,0,0,0,0,0,0.0437,0.0446,0.0453,0.0491,0.0503,0.056,0.0549,0.0555,0.0577,0.0578,0.0613,0.0617,0.0631,0.068,0.0687,0.0708,0.067,0.0786,0.0789,0.0792,0.0809,0.0814,0.0819,0,0,0,0,0,0.0434,0.0454,0.0453,0.0461,0.0511,0.0561,0.0569,0.0589,0.0578,0.06,0.0623,0.0616,0.0704,0.0684,0.0692,0.0714,0.0784,0.0788,0.0792,0.0806,0.0813,0.0819,0,0,0,0,0,0,0.042,0.0459,0.0459,0.0489,0.0523,0.0564,0.0585,0.0592,0.0627,0.0625,0.0641,0.0649,0.0697,0.0708,0.0685,0.0761,0.0742,0.0747,0.0751,0.0757,0.0762,0.0805,0.0673,0,0,0,0,0,0.0419,0.0447,0.048,0.0506,0.0522,0.055,0.057,0.0585,0.0619,0.0633,0.0657,0.0685,0.072,0.0738,0.0772,0.0815,0.0821,0.0835,0.084,0.0844,0.0886,0.0919,0.0931,0.0805,0.0805,0.0805,0,0,0.0422,0.0445,0.0461,0.0505,0.0531,0.0569,0.0562,0.06,0.0634,0.0634,0.0688,0.0706,0.0737,0.0787,0.0809,0.0797,0.0871,0.0848,0.0851,0.0893,0.0924,0.0936,0.0947,0.0808,0.0807,0.0807,0,0,0.0451,0.0461,0.0496,0.0525,0.0565,0.0585,0.0595,0.0638,0.066,0.0712,0.0719,0.0764,0.0806,0.0846,0.0866,0.0925,0.0898,0.0913,0.0974,0.1003,0.1014,0.1024,0.099,0.0997,0.0913,0.0913,0.0914,0,0.0445,0.0496,0.0515,0.0554,0.0582,0.0592,0.0635,0.0664,0.0718,0.0753,0.0734,0.0837,0.0848,0.0932,0.0946,0.094,0.0925,0.094,0.1009,0.102,0.1029,0.0993,0.1,0.0915,0.0915,0.0915,0.0914,0,0.0503,0.054,0.0565,0.0615,0.0648,0.0688,0.0723,0.0758,0.0773,0.0811,0.0895,0.0927,0.0995,0.0989,0.0985,0.1062,0.1014,0.1008,0.0989,0.1043,0.1001,0.1008,0.0917,0.0916,0.0916,0.0916,0,0,0.0496,0.0586,0.0592,0.0631,0.0682,0.0718,0.0773,0.0843,0.0897,0.0942,0.1031,0.1083,0.1104,0.1132,0.113,0.1156,0.1176,0.1109,0.1109,0.1068,0.1189,0.1139,0.1141,0.1167,0.117,0.1172,0.1111,0,0.0532,0.0616,0.0652,0.073,0.0777,0.0807,0.0865,0.0925,0.0974,0.1061,0.1112,0.1189,0.1154,0.1186,0.1213,0.1211,0.1205,0.1191,0.1154,0.1153,0.1097,0.1154,0.1164,0.1111,0.1118,0.1119,0.112,0,0.0575,0.0628,0.0709,0.0804,0.0826,0.0869,0.0964,0.1021,0.113,0.1174,0.1262,0.1299,0.1379,0.1325,0.1354,0.1339,0.1272,0.1245,0.1242,0.1212,0.112,0.1073,0.1124,0.1194,0.113,0.113,0.1129,0,0.0572,0.0668,0.0735,0.0764,0.0866,0.0909,0.096,0.1058,0.1131,0.1252,0.132,0.1411,0.1463,0.1446,0.1395,0.1372,0.1395,0.1351,0.1233,0.1224,0.1244,0.1234,0.1367,0.1351,0.1351,0.1352,0.1352,0,0.0603,0.0658,0.0738,0.0778,0.0864,0.0923,0.1028,0.1091,0.1212,0.1316,0.138,0.1472,0.1496,0.1512,0.144,0.1372,0.1423,0.1273,0.1234,0.1242,0.1233,0.1303,0.1331,0.1349,0.135,0.135,0.1351,0,0.0609,0.0658,0.0743,0.0841,0.0872,0.0932,0.1059,0.1144,0.1235,0.1374,0.1419,0.1531,0.1544,0.1524,0.1492,0.1421,0.1384,0.1299,0.1278,0.124,0.12,0.1227,0.1293,0.1332,0.1181,0.1179,0.1178,0,0.063,0.0673,0.0774,0.0825,0.0873,0.0965,0.1041,0.1146,0.1236,0.1403,0.1474,0.1539,0.1578,0.152,0.1431,0.1309,0.133,0.1219,0.1201,0.1237,0.1239,0.1242,0.1273,0.1196,0.1196,0.1195,0.1195,0,0.0674,0.07,0.0766,0.0853,0.093,0.1026,0.113,0.12,0.1331,0.1424,0.1532,0.1574,0.1543,0.1474,0.1333,0.1253,0.13,0.1198,0.1281,0.1322,0.1298,0.1302,0.1148,0.1189,0.119,0.119,0.119,0.1191,0.07,0.0742,0.081,0.0893,0.0978,0.1068,0.113,0.1231,0.1339,0.1446,0.1513,0.1522,0.1502,0.1327,0.1285,0.1233,0.1216,0.1198,0.1234,0.1238,0.1293,0.1098,0.1074,0.1074,0.1073,0.1073,0.1073,0,0.0729,0.077,0.085,0.0938,0.1008,0.1055,0.118,0.1223,0.1303,0.1366,0.1414,0.1381,0.1361,0.1331,0.1285,0.1288,0.1307,0.1304,0.1365,0.1398,0.1268,0.1291,0.1263,0.1263,0.1263,0.1263,0.1263,0.1263,0.0741,0.0804,0.0834,0.0931,0.0992,0.1064,0.1118,0.1175,0.1213,0.1218,0.1182,0.1178,0.1225,0.1362,0.1438,0.1439,0.1535,0.1477,0.1533,0.1496,0.1491,0.1486,0.1518,0.1538,0.1539,0.167,0.1671,0.1672]}],[{"header":{"parameterUnit":"m.s-1","parameterCategory":2,"la1":30.2991,"la2":30.254,"lo1":-89.0895,"lo2":-89.0444,"dy":0.0017,"dx":0.0017,"nx":28,"ny":28,"refTime":"2025-05-24T21:00:00:Z","depth":"2","parameterNumber":2,"parameterNumberName":"U-component_of_CURRENTS"},"data":[0,0,0,0,0,0,0,0,0,0,0,0,0,0,0,0,0,0,0,0,0,0,0,0,0,0,0,0,0,0,0,0,0,0,0,0,0,0,0,0,0,0,0,0,0,0,0,0,0,0,0,0,0,0,0,0,0,0,0.1737,0.1736,0,0.1686,0.1687,0.1687,0.1653,0.1651,0.165,0.1648,0.1718,0.1721,0.1725,0,0,0,0,0,0,0,0,0,0,0,0,0,0.1795,0.1795,0.1737,0.1736,0.1734,0.1686,0.1687,0.1687,0.1653,0.1651,0.1649,0.1648,0.1717,0.1721,0.1725,0,0,0,0,0,0,0,0,0,0,0,0,0,0.1773,0.1795,0.1738,0.1701,0.1696,0.1686,0.1687,0.1687,0.1653,0.1651,0.1649,0.1647,0.1716,0.1721,0.1725,0.18,0,0,0.174,0.1742,0,0,0,0,0,0,0,0,0.1774,0.1772,0.1708,0.1703,0.1697,0.1661,0.1731,0.1726,0.1654,0.1684,0.1648,0.1646,0.1703,0.1709,0.1722,0.1804,0.1807,0.1741,0.1744,0.1746,0.1747,0,0,0,0,0,0,0,0.1776,0.1774,0.1731,0.1706,0.1699,0.1682,0.1678,0.1731,0.172,0.1681,0.1675,0.1648,0.1703,0.1717,0.1724,0.1808,0.1741,0.1745,0.1748,0.175,0.1966,0.1968,0,0,0,0,0,0,0.1758,0.1776,0.1732,0.1728,0.1715,0.1682,0.1678,0.1687,0.1716,0.1714,0.165,0.1647,0.171,0.1718,0.1726,0.1804,0.1746,0.175,0.1753,0.1963,0.1966,0.1969,0,0,0,0,0,0,0.176,0.1756,0.1734,0.1737,0.1731,0.1682,0.1692,0.1686,0.1706,0.1689,0.1691,0.1674,0.1709,0.1719,0.1787,0.1807,0.1753,0.1757,0.196,0.1964,0.1968,0.1969,0,0,0,0,0,0,0.1763,0.1758,0.1759,0.1738,0.173,0.173,0.1693,0.1686,0.1685,0.1681,0.1711,0.1714,0.1708,0.178,0.1792,0.1813,0.1761,0.1956,0.1962,0.1967,0.1966,0.1973,0.1979,0,0,0,0,0,0.1766,0.1754,0.176,0.1753,0.1734,0.173,0.1728,0.1692,0.1689,0.1704,0.1732,0.1713,0.1821,0.1787,0.18,0.1822,0.1954,0.196,0.1966,0.1963,0.1972,0.1979,0,0,0,0,0,0,0.1765,0.1748,0.1754,0.1737,0.1739,0.1718,0.1713,0.1712,0.1749,0.1744,0.1757,0.1764,0.1823,0.1846,0.1808,0.1906,0.1883,0.1892,0.1876,0.1885,0.1891,0.1922,0.1765,0,0,0,0,0,0.1771,0.1768,0.1761,0.1749,0.176,0.1757,0.175,0.1732,0.1748,0.176,0.1786,0.1823,0.1864,0.189,0.1925,0.1996,0.1996,0.2022,0.2028,0.2034,0.2073,0.2082,0.2092,0.199,0.199,0.199,0,0,0.1758,0.1751,0.1744,0.175,0.1758,0.1766,0.1752,0.1744,0.1747,0.1768,0.181,0.1848,0.189,0.1945,0.1976,0.1965,0.2058,0.2042,0.2045,0.2083,0.2089,0.2099,0.2107,0.1994,0.1994,0.1993,0,0,0.1736,0.1751,0.175,0.1786,0.1785,0.1764,0.1773,0.1782,0.179,0.1844,0.1849,0.1926,0.1985,0.2022,0.2048,0.2135,0.2089,0.2127,0.219,0.2197,0.2204,0.2211,0.2189,0.2193,0.2134,0.2134,0.2134,0,0.1731,0.174,0.1746,0.1789,0.1788,0.1775,0.1782,0.18,0.1824,0.1863,0.1856,0.2,0.203,0.2119,0.214,0.2149,0.2124,0.214,0.2201,0.2208,0.2215,0.219,0.2196,0.2135,0.2135,0.2135,0.2135,0,0.1747,0.1761,0.1775,0.1811,0.1804,0.1819,0.1822,0.185,0.1858,0.1892,0.1997,0.2063,0.2153,0.2169,0.2184,0.2259,0.2212,0.2194,0.2165,0.2224,0.2196,0.2201,0.2136,0.2136,0.2136,0.2135,0,0,0.1725,0.1772,0.1783,0.1809,0.1827,0.1823,0.1837,0.1862,0.1917,0.1979,0.2066,0.2173,0.2232,0.2272,0.23,0.2334,0.235,0.2288,0.2287,0.224,0.2326,0.2078,0.206,0.231,0.2312,0.2313,0.2272,0,0.1744,0.178,0.1792,0.1815,0.1826,0.1852,0.1888,0.1918,0.1945,0.2038,0.2138,0.2237,0.2255,0.2313,0.2348,0.2355,0.237,0.2362,0.2303,0.2302,0.2052,0.2061,0.1898,0.1829,0.2277,0.2278,0.2278,0,0.1768,0.1775,0.1793,0.1833,0.1854,0.1876,0.1917,0.1951,0.2068,0.2124,0.2231,0.2292,0.2399,0.2389,0.2436,0.2413,0.2386,0.2383,0.238,0.2163,0.2064,0.1855,0.1821,0.2287,0.2286,0.2286,0.2285,0,0.172,0.1777,0.177,0.1808,0.1859,0.1896,0.1914,0.1997,0.2051,0.2178,0.2236,0.2357,0.2406,0.2428,0.2403,0.242,0.24,0.2414,0.2172,0.2153,0.2018,0.1982,0.2442,0.2442,0.2442,0.2442,0.2442,0,0.1731,0.1745,0.1779,0.1807,0.1857,0.1893,0.1969,0.2032,0.2134,0.2195,0.2288,0.232,0.2411,0.2395,0.2397,0.2258,0.238,0.2188,0.2128,0.2007,0.1972,0.2388,0.2383,0.244,0.2441,0.2441,0.2441,0,0.1704,0.1727,0.1743,0.1803,0.1841,0.1877,0.1983,0.2043,0.214,0.22,0.2242,0.2295,0.2236,0.2262,0.2259,0.2196,0.2138,0.2055,0.188,0.1798,0.1903,0.1899,0.1824,0.1815,0.1808,0.1801,0.1796,0,0.1685,0.1701,0.1743,0.1766,0.1811,0.1884,0.1944,0.2043,0.2068,0.2145,0.2147,0.2127,0.2039,0.1913,0.1816,0.1724,0.1881,0.1517,0.1536,0.1891,0.1842,0.185,0.1856,0.137,0.1362,0.1355,0.1349,0,0.1668,0.1699,0.1707,0.1748,0.1795,0.1847,0.191,0.1916,0.1997,0.2012,0.1942,0.188,0.1717,0.1494,0.1343,0.1288,0.1524,0.1363,0.1799,0.1511,0.1447,0.1404,0.1429,0.1288,0.1294,0.1299,0.1302,0.1304,0.1641,0.1656,0.1678,0.1715,0.1754,0.1755,0.1749,0.1753,0.173,0.1659,0.1673,0.1491,0.1428,0.1056,0.0946,0.086,0.1011,0.1005,0.1034,0.107,0.0984,0.0905,0.0629,0.0631,0.0633,0.0635,0.0636,0,0.1601,0.1632,0.1655,0.1646,0.1646,0.1719,0.1694,0.1621,0.1484,0.1394,0.1285,0.1029,0.0785,0.0732,0.0489,0.0416,0.0511,0.0395,0.0564,0.062,0.0672,0.0576,0.0109,0.0108,0.0106,0.0105,0,0,0.1575,0.1553,0.1564,0.1527,0.1558,0.1492,0.1447,0.1317,0.12,0.0979,0.0833,0.0775,0.0717,0.0451,0.0359,0.0207,0.0435,0.0164,0.0582,0.0842,0.0894,0.0999,0.0907,0,0,0,0,0]},{"header":{"parameterUnit":"m.s-1","parameterCategory":2,"la1":30.2991,"la2":30.254,"lo1":-89.0895,"lo2":-89.0444,"dy":0.0017,"dx":0.0017,"nx":28,"ny":28,"refTime":"2025-05-24T21:00:00:Z","depth":"2","parameterNumber":3,"parameterNumberName":"V-component_of_CURRENTS"},"data":[0,0,0,0,0,0,0,0,0,0,0,0,0,0,0,0,0,0,0,0,0,0,0,0,0,0,0,0,0,0,0,0,0,0,0,0,0,0,0,0,0,0,0,0,0,0,0,0,0,0,0,0,0,0,0,0,0,0,0.0137,0.0137,0,0.0152,0.0153,0.0153,0.0141,0.014,0.0139,0.0138,0.009,0.009,0.0089,0,0,0,0,0,0,0,0,0,0,0,0,0,0.0108,0.0109,0.0137,0.0137,0.0137,0.0152,0.0153,0.0153,0.0141,0.014,0.0139,0.0138,0.009,0.009,0.0089,0,0,0,0,0,0,0,0,0,0,0,0,0,0.0125,0.0109,0.0137,0.013,0.0129,0.0152,0.0153,0.0154,0.0141,0.014,0.0138,0.0137,0.0091,0.009,0.0089,0.011,0,0,0.0087,0.0087,0,0,0,0,0,0,0,0,0.0124,0.0127,0.0131,0.013,0.013,0.014,0.0125,0.0135,0.0141,0.014,0.0138,0.0137,0.01,0.0098,0.011,0.0108,0.0105,0.0087,0.0086,0.0086,0.0086,0,0,0,0,0,0,0,0.0123,0.0126,0.0147,0.0131,0.013,0.013,0.0131,0.0127,0.0128,0.014,0.0138,0.0135,0.0099,0.0111,0.0108,0.0105,0.0087,0.0086,0.0086,0.0085,0.0107,0.0108,0,0,0,0,0,0,0.0115,0.0125,0.0146,0.0147,0.012,0.0131,0.0132,0.0141,0.013,0.0126,0.0136,0.0134,0.0112,0.0109,0.0106,0.0115,0.0086,0.0085,0.0085,0.0106,0.0108,0.0109,0,0,0,0,0,0,0.0115,0.0118,0.0145,0.0132,0.0135,0.0132,0.0142,0.0142,0.0153,0.0127,0.0122,0.0146,0.0111,0.0107,0.0101,0.0113,0.0085,0.0084,0.0105,0.0107,0.0108,0.0141,0,0,0,0,0,0,0.0114,0.0118,0.0121,0.0133,0.0136,0.0158,0.0143,0.0143,0.0151,0.0149,0.0134,0.0129,0.011,0.0103,0.0101,0.0111,0.0084,0.0104,0.0106,0.0108,0.0138,0.0143,0.0147,0,0,0,0,0,0.0114,0.0122,0.0122,0.0124,0.0141,0.0158,0.0161,0.0156,0.0153,0.0161,0.0149,0.0129,0.0113,0.0103,0.01,0.0111,0.0103,0.0105,0.0107,0.0136,0.0142,0.0147,0,0,0,0,0,0,0.0107,0.0121,0.0121,0.0132,0.0144,0.0155,0.0158,0.0164,0.0166,0.0156,0.014,0.0134,0.0136,0.0123,0.0112,0.0125,0.0107,0.0108,0.0129,0.0135,0.0139,0.0188,0.0083,0,0,0,0,0,0.0109,0.0119,0.0133,0.014,0.0148,0.0158,0.0164,0.0163,0.0164,0.0165,0.016,0.0151,0.0147,0.0139,0.0135,0.014,0.0158,0.0147,0.0152,0.0156,0.0195,0.024,0.0253,0.0116,0.0116,0.0116,0,0,0.01,0.0115,0.0115,0.0139,0.0148,0.0166,0.016,0.0168,0.0177,0.0158,0.0171,0.0169,0.0154,0.0159,0.0159,0.0145,0.0197,0.0158,0.0162,0.02,0.0244,0.0257,0.0269,0.0118,0.0118,0.0117,0,0,0.0099,0.0112,0.0122,0.0143,0.0158,0.0166,0.0172,0.0191,0.0191,0.0202,0.0194,0.0218,0.0195,0.0211,0.0207,0.0242,0.0224,0.0217,0.0273,0.0314,0.0326,0.0337,0.0347,0.0359,0.0213,0.0213,0.0214,0,0.0093,0.0111,0.0125,0.0153,0.0163,0.0171,0.0186,0.0197,0.021,0.0226,0.0204,0.025,0.0234,0.0274,0.0278,0.0257,0.0258,0.0247,0.0322,0.0333,0.0344,0.0352,0.0364,0.0215,0.0215,0.0215,0.0215,0,0.0112,0.0125,0.0136,0.0171,0.0185,0.02,0.0214,0.0242,0.0243,0.0256,0.03,0.0306,0.0344,0.0331,0.0308,0.0377,0.0343,0.0325,0.0309,0.036,0.0364,0.0376,0.0218,0.0217,0.0217,0.0216,0,0,0.0111,0.014,0.0147,0.0159,0.0195,0.021,0.0241,0.0275,0.0324,0.0333,0.0403,0.0409,0.0437,0.0441,0.0433,0.0468,0.0525,0.0424,0.0425,0.0437,0.0589,0.053,0.0537,0.0504,0.0507,0.051,0.0549,0,0.0123,0.0158,0.0172,0.0199,0.0214,0.0246,0.0282,0.0317,0.0352,0.0427,0.0452,0.0513,0.0464,0.0505,0.0528,0.0543,0.0565,0.0516,0.0538,0.0539,0.0483,0.0553,0.0529,0.056,0.0561,0.0563,0.0565,0,0.0147,0.0163,0.0185,0.0218,0.0231,0.0256,0.034,0.0369,0.0467,0.0513,0.0589,0.0618,0.0694,0.0648,0.0701,0.0661,0.0636,0.0634,0.0634,0.059,0.0506,0.0516,0.0583,0.0586,0.0584,0.0583,0.0581,0,0.0146,0.0175,0.0185,0.0202,0.0248,0.0276,0.0303,0.0395,0.0452,0.059,0.0679,0.0746,0.0811,0.0811,0.0791,0.0751,0.0839,0.078,0.0703,0.0696,0.0693,0.0681,0.0828,0.0828,0.0828,0.0828,0.0827,0,0.0163,0.0175,0.0187,0.0205,0.024,0.0268,0.0345,0.0416,0.0539,0.0645,0.0719,0.0826,0.0857,0.0897,0.0849,0.0822,0.0879,0.075,0.0724,0.0697,0.0686,0.0726,0.0714,0.0829,0.0829,0.0828,0.0828,0,0.0169,0.0174,0.019,0.0226,0.024,0.0263,0.0354,0.0435,0.0555,0.0714,0.0774,0.0902,0.0947,0.0949,0.0968,0.0902,0.0885,0.085,0.0801,0.0769,0.0692,0.0681,0.0783,0.0782,0.078,0.078,0.0779,0,0.017,0.0185,0.0206,0.0221,0.0235,0.0279,0.0335,0.0438,0.0542,0.0753,0.084,0.094,0.0996,0.099,0.0933,0.087,0.0856,0.0797,0.0728,0.0734,0.0699,0.0689,0.0679,0.0723,0.0722,0.0721,0.072,0,0.0186,0.0197,0.0214,0.0244,0.0278,0.033,0.0415,0.0495,0.0654,0.0793,0.0948,0.0998,0.1003,0.094,0.0863,0.0804,0.0808,0.077,0.0845,0.0722,0.0677,0.0641,0.0635,0.0712,0.0712,0.0713,0.0714,0.0714,0.0197,0.0212,0.0242,0.027,0.0314,0.0384,0.0438,0.0554,0.0691,0.0882,0.0932,0.0979,0.0966,0.0812,0.077,0.0716,0.0714,0.0671,0.0675,0.068,0.0651,0.0605,0.0619,0.0619,0.062,0.062,0.062,0,0.0215,0.024,0.0273,0.0307,0.0365,0.0389,0.0508,0.0566,0.0707,0.0826,0.0915,0.0836,0.0789,0.0748,0.0659,0.0618,0.0624,0.0586,0.0611,0.0619,0.0626,0.0595,0.0548,0.0548,0.0548,0.0548,0,0,0.0226,0.0247,0.0266,0.0342,0.0388,0.0452,0.0513,0.0598,0.0671,0.0735,0.0753,0.0791,0.0762,0.0681,0.0645,0.0594,0.0607,0.0571,0.0629,0.067,0.0677,0.0672,0.0632,0,0,0,0,0]}],[{"header":{"parameterUnit":"m.s-1","parameterCategory":2,"la1":30.2991,"la2":30.254,"lo1":-89.0895,"lo2":-89.0444,"dy":0.0017,"dx":0.0017,"nx":28,"ny":28,"refTime":"2025-05-24T21:00:00:Z","depth":"4","parameterNumber":2,"parameterNumberName":"U-component_of_CURRENTS"},"data":[0,0,0,0,0,0,0,0,0,0,0,0,0,0,0,0,0,0,0,0,0,0,0,0,0,0,0,0,0,0,0,0,0,0,0,0,0,0,0,0,0,0,0,0,0,0,0,0,0,0,0,0,0,0,0,0,0,0,0.0746,0.0746,0,0.0746,0.0746,0.0746,0.0757,0.0757,0.0758,0.0758,0.0698,0.0697,0.0695,0,0,0,0,0,0,0,0,0,0,0,0,0,0.0787,0.0786,0.0746,0.0746,0.0746,0.0746,0.0746,0.0746,0.0757,0.0758,0.0758,0.0758,0.0699,0.0697,0.0695,0,0,0,0,0,0,0,0,0,0,0,0,0,0.0776,0.0786,0.0746,0.0752,0.0752,0.0746,0.0746,0.0746,0.0757,0.0758,0.0758,0.0758,0.07,0.0697,0.0694,0.0668,0,0,0.0686,0.0684,0,0,0,0,0,0,0,0,0.0777,0.0775,0.0751,0.0751,0.0752,0.0752,0.0738,0.0717,0.0757,0.0755,0.0758,0.0759,0.071,0.0707,0.0707,0.0665,0.0662,0.0685,0.0684,0.0682,0.0682,0,0,0,0,0,0,0,0.0778,0.0775,0.0746,0.0751,0.0751,0.0765,0.0763,0.0735,0.0729,0.0755,0.0756,0.0756,0.071,0.0709,0.0705,0.0661,0.0685,0.0683,0.0681,0.068,0.0671,0.0672,0,0,0,0,0,0,0.0775,0.0775,0.0746,0.0746,0.0766,0.0763,0.0762,0.0751,0.0731,0.0729,0.0756,0.0757,0.0714,0.0708,0.0703,0.0712,0.0683,0.068,0.0678,0.0669,0.0671,0.0673,0,0,0,0,0,0,0.0776,0.0772,0.0746,0.0762,0.0759,0.0762,0.075,0.0751,0.0769,0.0732,0.0728,0.0775,0.0714,0.0707,0.0694,0.0708,0.0679,0.0676,0.0668,0.067,0.0672,0.0702,0,0,0,0,0,0,0.0777,0.0772,0.0775,0.0761,0.0758,0.0753,0.075,0.0751,0.0767,0.0769,0.0746,0.0741,0.0714,0.0698,0.0691,0.0703,0.0674,0.0666,0.0669,0.0671,0.0699,0.0705,0.071,0,0,0,0,0,0.0778,0.0766,0.0775,0.0772,0.0758,0.0753,0.0754,0.0757,0.0768,0.0776,0.0764,0.0742,0.0711,0.0696,0.0688,0.0699,0.0664,0.0668,0.0671,0.0697,0.0704,0.0709,0,0,0,0,0,0,0.0789,0.0766,0.0775,0.0759,0.0767,0.0756,0.0762,0.077,0.0769,0.0773,0.0745,0.0738,0.0743,0.0718,0.0703,0.0711,0.069,0.0692,0.0713,0.0719,0.0724,0.0736,0.0672,0,0,0,0,0,0.0793,0.0775,0.0772,0.0764,0.0769,0.0775,0.0778,0.0783,0.0775,0.0778,0.0764,0.0753,0.0747,0.073,0.0724,0.0707,0.0719,0.0717,0.0722,0.0727,0.0734,0.0813,0.0826,0.0683,0.0683,0.0683,0,0,0.0797,0.0781,0.0775,0.0766,0.0772,0.0773,0.0778,0.0786,0.0786,0.0767,0.0769,0.0775,0.0753,0.0749,0.0748,0.0726,0.0763,0.0731,0.0734,0.0739,0.0817,0.0831,0.0844,0.0685,0.0685,0.0685,0,0,0.0787,0.0785,0.0773,0.0772,0.0779,0.0784,0.0794,0.0799,0.0804,0.0801,0.0804,0.0819,0.079,0.0787,0.0777,0.0806,0.0803,0.0812,0.0824,0.0901,0.0913,0.0925,0.091,0.092,0.0797,0.0798,0.0798,0,0.0804,0.0774,0.0774,0.0762,0.076,0.0792,0.0789,0.0796,0.0799,0.0806,0.0805,0.0827,0.0807,0.0815,0.0828,0.0816,0.084,0.0795,0.0908,0.092,0.0931,0.0914,0.0924,0.0799,0.0799,0.0799,0.0799,0,0.0779,0.0765,0.0759,0.0752,0.0757,0.0758,0.0768,0.0793,0.0811,0.0818,0.0851,0.0847,0.0863,0.0864,0.0844,0.0912,0.0894,0.092,0.089,0.0947,0.0924,0.0935,0.0802,0.0801,0.0801,0.08,0,0,0.0787,0.075,0.0751,0.0737,0.0748,0.0743,0.0766,0.0788,0.0812,0.0834,0.0862,0.087,0.0905,0.09,0.0904,0.0953,0.1027,0.0969,0.0972,0.0949,0.1149,0.1002,0.0998,0.1095,0.1098,0.11,0.1083,0,0.0777,0.0742,0.073,0.0713,0.0699,0.0727,0.0739,0.0766,0.0803,0.0842,0.0872,0.0905,0.0906,0.0932,0.0987,0.1029,0.1065,0.1025,0.1102,0.1102,0.0963,0.101,0.1111,0.1091,0.1093,0.1095,0.1096,0,0.075,0.0728,0.0706,0.0678,0.0678,0.0689,0.0732,0.0744,0.0813,0.0843,0.0908,0.0944,0.1,0.1017,0.1111,0.1095,0.113,0.1156,0.1157,0.1022,0.0977,0.1036,0.1115,0.1114,0.1112,0.1111,0.111,0,0.0734,0.0701,0.0681,0.0671,0.0665,0.068,0.07,0.0759,0.0778,0.0873,0.0915,0.099,0.1037,0.1121,0.1153,0.1163,0.1252,0.1267,0.1154,0.114,0.1263,0.1252,0.1363,0.1363,0.1363,0.1363,0.1363,0,0.0699,0.0678,0.0677,0.0663,0.0656,0.0664,0.0687,0.0733,0.0803,0.0833,0.0926,0.0969,0.1087,0.1137,0.1174,0.1165,0.1269,0.1156,0.1146,0.1266,0.1256,0.1266,0.1256,0.1362,0.1363,0.1363,0.1363,0,0.0661,0.0662,0.0634,0.064,0.0643,0.0644,0.067,0.0693,0.0776,0.0832,0.0869,0.0976,0.1036,0.1095,0.1198,0.1163,0.1187,0.1165,0.1224,0.1217,0.1009,0.1001,0.1033,0.1028,0.1024,0.102,0.1017,0,0.0632,0.0618,0.0619,0.0614,0.0618,0.0621,0.0631,0.0686,0.0713,0.0817,0.084,0.0928,0.0984,0.099,0.1064,0.1081,0.1088,0.1063,0.1095,0.0999,0.0986,0.0984,0.098,0.1011,0.101,0.1009,0.1007,0,0.058,0.0596,0.0584,0.0578,0.0583,0.0563,0.0585,0.06,0.0668,0.0745,0.0801,0.0835,0.0878,0.0925,0.0932,0.0958,0.1061,0.102,0.1029,0.106,0.0973,0.0964,0.0965,0.0993,0.0995,0.0996,0.0997,0,0.0559,0.0542,0.0544,0.0524,0.0524,0.0509,0.0521,0.0543,0.0573,0.0696,0.0702,0.0795,0.0873,0.0858,0.0871,0.0865,0.0867,0.0846,0.0865,0.0881,0.0838,0.0706,0.0639,0,0,0,0,0,0.0537,0.0507,0.0484,0.0463,0.046,0.0465,0.0486,0.0509,0.058,0.0599,0.0651,0.0689,0.0714,0.0754,0.0721,0.0783,0.0858,0.0736,0.084,0.0913,0.093,0.0893,0,0,0,0,0,0,0.0523,0.0502,0.0466,0.0408,0.0397,0.0389,0.041,0.0463,0.047,0.0556,0.0582,0.0631,0.0673,0.0743,0.0713,0.0717,0.0758,0.0778,0.0775,0.0904,0.0919,0.0932,0.09,0,0,0,0,0]},{"header":{"parameterUnit":"m.s-1","parameterCategory":2,"la1":30.2991,"la2":30.254,"lo1":-89.0895,"lo2":-89.0444,"dy":0.0017,"dx":0.0017,"nx":28,"ny":28,"refTime":"2025-05-24T21:00:00:Z","depth":"4","parameterNumber":3,"parameterNumberName":"V-component_of_CURRENTS"},"data":[0,0,0,0,0,0,0,0,0,0,0,0,0,0,0,0,0,0,0,0,0,0,0,0,0,0,0,0,0,0,0,0,0,0,0,0,0,0,0,0,0,0,0,0,0,0,0,0,0,0,0,0,0,0,0,0,0,0,0.0087,0.0087,0,0.0103,0.0103,0.0104,0.0112,0.0112,0.0112,0.0112,0.0147,0.0148,0.0149,0,0,0,0,0,0,0,0,0,0,0,0,0,0.0059,0.006,0.0087,0.0087,0.0087,0.0103,0.0103,0.0104,0.0112,0.0112,0.0112,0.0112,0.0146,0.0148,0.0149,0,0,0,0,0,0,0,0,0,0,0,0,0,0.0073,0.006,0.0087,0.0093,0.0093,0.0103,0.0103,0.0104,0.0112,0.0112,0.0112,0.0112,0.0146,0.0147,0.0149,0.016,0,0,0.0153,0.0154,0,0,0,0,0,0,0,0,0.0073,0.0075,0.0092,0.0092,0.0093,0.0105,0.0106,0.0123,0.0112,0.0106,0.0112,0.0112,0.0134,0.0136,0.014,0.0161,0.0163,0.0154,0.0154,0.0155,0.0155,0,0,0,0,0,0,0,0.0072,0.0074,0.0094,0.0092,0.0093,0.0093,0.0095,0.0109,0.0121,0.0106,0.0107,0.0107,0.0135,0.0139,0.0141,0.0163,0.0153,0.0155,0.0156,0.0156,0.0195,0.0195,0,0,0,0,0,0,0.0069,0.0073,0.0094,0.0094,0.0082,0.0094,0.0096,0.0102,0.0121,0.0123,0.0107,0.0108,0.0137,0.014,0.0143,0.0166,0.0155,0.0156,0.0157,0.0194,0.0195,0.0195,0,0,0,0,0,0,0.0068,0.0071,0.0093,0.0083,0.0086,0.0094,0.0101,0.0102,0.0107,0.0121,0.0124,0.0111,0.0137,0.0141,0.0156,0.0167,0.0157,0.0158,0.0194,0.0195,0.0195,0.0206,0,0,0,0,0,0,0.0067,0.007,0.0072,0.0083,0.0086,0.01,0.0101,0.0102,0.0107,0.0108,0.0125,0.0128,0.0137,0.0154,0.0158,0.0169,0.016,0.0194,0.0194,0.0195,0.0206,0.0207,0.0208,0,0,0,0,0,0.0066,0.0071,0.0072,0.0074,0.0089,0.01,0.0102,0.0107,0.0108,0.0112,0.0122,0.0128,0.0158,0.0155,0.016,0.0171,0.0194,0.0194,0.0195,0.0205,0.0206,0.0208,0,0,0,0,0,0,0.0059,0.0072,0.0074,0.0082,0.009,0.0101,0.0103,0.0108,0.0119,0.0119,0.0132,0.0136,0.0152,0.0158,0.0155,0.0182,0.0176,0.0177,0.0183,0.0184,0.0185,0.0184,0.0161,0,0,0,0,0,0.0058,0.0066,0.0076,0.0082,0.0085,0.0094,0.0098,0.0103,0.0114,0.0119,0.0133,0.0145,0.0156,0.0167,0.0177,0.0196,0.0188,0.0204,0.0205,0.0206,0.0207,0.0203,0.0204,0.0196,0.0196,0.0196,0,0,0.0055,0.0065,0.0068,0.0081,0.0086,0.0099,0.0096,0.0104,0.0122,0.0122,0.0147,0.0148,0.016,0.0179,0.0187,0.0187,0.0203,0.0207,0.0207,0.0208,0.0204,0.0204,0.0205,0.0196,0.0196,0.0196,0,0,0.0059,0.0063,0.0071,0.008,0.009,0.01,0.0102,0.0116,0.0127,0.0149,0.015,0.0152,0.0183,0.0186,0.0194,0.0205,0.0205,0.0214,0.0225,0.0221,0.0222,0.0222,0.0207,0.0206,0.0219,0.0219,0.0219,0,0.0054,0.0071,0.0074,0.0086,0.0099,0.0102,0.0118,0.0131,0.015,0.0162,0.016,0.0181,0.0185,0.0201,0.0205,0.0208,0.0205,0.022,0.0222,0.0223,0.0223,0.0207,0.0206,0.0219,0.0219,0.0219,0.0219,0,0.0065,0.0079,0.0084,0.0106,0.0118,0.0132,0.015,0.0165,0.0178,0.0189,0.0205,0.0203,0.0215,0.0215,0.0217,0.0224,0.022,0.0221,0.0219,0.0225,0.0208,0.0206,0.022,0.022,0.022,0.0219,0,0,0.0059,0.0087,0.009,0.0108,0.0133,0.0148,0.0175,0.0202,0.0221,0.0229,0.0248,0.0252,0.0242,0.0247,0.0241,0.0236,0.0228,0.0234,0.0234,0.0219,0.0216,0.0222,0.022,0.0236,0.0236,0.0236,0.0201,0,0.0069,0.0098,0.0113,0.0149,0.0167,0.0185,0.0215,0.0238,0.0254,0.0271,0.0261,0.0275,0.0259,0.0261,0.0252,0.0234,0.0226,0.0237,0.0213,0.0212,0.0217,0.022,0.0236,0.0199,0.0199,0.0199,0.0199,0,0.0078,0.0101,0.0134,0.0181,0.0191,0.0214,0.0259,0.0287,0.0306,0.0314,0.0313,0.0308,0.0295,0.0282,0.0251,0.0262,0.0242,0.0223,0.0222,0.0223,0.0216,0.0195,0.0196,0.0196,0.0196,0.0197,0.0197,0,0.0078,0.0119,0.015,0.0165,0.0212,0.0236,0.0266,0.0297,0.0325,0.0338,0.0347,0.0332,0.0324,0.0297,0.0258,0.0261,0.022,0.0217,0.0199,0.0199,0.0198,0.0198,0.0197,0.0197,0.0197,0.0197,0.0198,0,0.0089,0.0115,0.0153,0.0171,0.0216,0.0248,0.0294,0.0316,0.0346,0.0373,0.0367,0.0368,0.0331,0.0306,0.0267,0.0226,0.0226,0.02,0.0194,0.0202,0.0203,0.0196,0.0197,0.0196,0.0196,0.0197,0.0197,0,0.0084,0.0108,0.0147,0.0198,0.0216,0.0249,0.0314,0.0345,0.0371,0.04,0.0407,0.0397,0.0369,0.0327,0.0275,0.0241,0.0199,0.0186,0.0191,0.0185,0.0175,0.0177,0.0162,0.0162,0.0162,0.0162,0.0162,0,0.0085,0.0102,0.0156,0.0183,0.0208,0.0261,0.0299,0.0348,0.0377,0.0414,0.0421,0.0412,0.0399,0.0322,0.0277,0.0209,0.0201,0.0172,0.018,0.0178,0.0173,0.0175,0.0176,0.0162,0.0162,0.0162,0.0162,0,0.0089,0.0103,0.0131,0.018,0.0224,0.0274,0.0327,0.0349,0.0404,0.0429,0.0435,0.0413,0.0381,0.0324,0.0278,0.0226,0.0186,0.0172,0.0172,0.0179,0.0178,0.0174,0.0175,0.0162,0.0162,0.0162,0.0162,0,0.0087,0.0099,0.0132,0.0175,0.0225,0.0268,0.0305,0.0347,0.0384,0.0429,0.0424,0.0404,0.0396,0.0332,0.0283,0.0243,0.0232,0.0207,0.0205,0.0204,0.0231,0.0236,0.0234,0,0,0,0,0,0.0092,0.0099,0.013,0.0176,0.0223,0.0252,0.0315,0.0349,0.0399,0.0407,0.0422,0.0397,0.0348,0.0321,0.0282,0.0273,0.0215,0.0225,0.0182,0.0162,0.0162,0.0187,0,0,0,0,0,0,0.0095,0.0116,0.0121,0.0165,0.0193,0.0248,0.0284,0.0322,0.0331,0.0373,0.0346,0.037,0.0317,0.0364,0.0272,0.0263,0.0227,0.0213,0.0212,0.0162,0.0162,0.0162,0.0188,0,0,0,0,0]}]]